Location: ??????
(41.4493°N, 22.5910°E)
Time: 13:45:48
(UTC+00:00)

Daily predictions for brighter satellites

Satellite Brightness Start Highest point End
(mag) Time Altitude Azimuth Time Altitude Azimuth Time Altitude Azimuth
Cosmos 2221 Rocket 3.6 18:23:57 10° S 18:28:28 82° E 18:33:02 10° N
ARGOS 3.8 18:23:51 10° S 18:29:09 60° W 18:34:31 10° NNW
CZ-2C R/B 2.8 18:24:13 10° NNE 18:29:50 66° ESE 18:35:22 10° S
STARLINK-1094 4.4 18:27:25 10° WNW 18:31:22 44° SW 18:35:18 10° SSE
STARLINK-1102 4.3 18:29:41 10° NW 18:33:42 47° NNE 18:37:43 10° ESE
Cosmos 1943 Rocket 3.0 18:32:25 10° SSE 18:37:09 30° ESE 18:41:57 10° NE
NOSS 2-2 (E) 3.0 18:34:05 10° SSW 18:37:37 85° SE 18:41:29 10° NE
Aureole 2 Rocket 2.0 18:34:35 10° SSW 18:37:39 87° ESE 18:40:37 10° NNE
STARLINK-1111 4.2 18:34:39 10° NW 18:38:43 51° NNE 18:42:45 10° ESE
SPOT 3 Rocket 3.6 18:35:14 10° SSE 18:40:22 78° ENE 18:45:33 10° N
ASTEX 1 4.4 18:36:46 10° SSW 18:41:29 48° W 18:46:16 10° NNW
Okean 2 Rocket 3.1 18:38:24 10° N 18:42:49 85° W 18:47:12 10° S
SL-4 R/B 2.4 18:38:29 10° SW 18:42:59 56° SE 18:47:43 10° ENE
STARLINK-1073 4.1 18:39:35 10° NW 18:43:41 55° NNE 18:47:45 10° ESE
STARLINK-52 3.9 18:41:21 10° SSW 18:44:04 26° SE 18:46:48 10° ENE
GPS 2-04 Rocket1 4.0 18:43:46 10° WSW 18:46:26 21° SSW 18:49:02 10° SE
Cosmos 304 Rocket 3.8 18:42:35 10° SSW 18:47:21 85° ESE 18:52:11 10° NNE
H-2A R/B 3.8 18:42:57 10° SSW 18:47:28 32° W 18:52:07 10° NNW
STARLINK-1121 4.0 18:44:32 10° NW 18:48:39 60° NE 18:52:38 11° ESE
Cosmos 1833 Rocket 3.9 18:43:31 10° NW 18:48:41 39° WSW 18:53:50 10° S
Cosmos 2279 Rocket 4.0 18:45:02 10° N 18:51:17 82° E 18:57:29 10° S
Resurs 01 Rocket 1.7 18:47:27 10° SSE 18:51:50 63° ENE 18:56:15 10° N
USA 245 4.5 18:50:37 10° ESE 18:51:59 14° ENE 18:53:20 10° NE
OE (NEXTSAT) 4.3 18:49:01 10° WSW 18:52:32 90° SW 18:56:03 10° ENE
ATLAS CENTAUR R/B 3.4 18:52:18 11° SE 18:53:22 12° ESE 18:55:02 10° E
STARLINK-1106 3.8 18:49:32 10° NW 18:53:39 65° NE 18:57:26 12° ESE
Cosmos 1300 Rocket 3.8 18:49:48 10° NNW 18:54:15 74° W 18:58:37 10° S
FALCON 9 DEB 4.3 18:52:56 10° S 18:55:36 21° SE 18:58:17 10° E
Cosmos 1437 Rocket 2.7 18:52:04 10° S 18:55:51 85° W 18:59:43 10° N
Cosmos 2151 Rocket 3.7 18:54:01 10° N 18:58:34 84° W 19:03:05 10° S
STARLINK-1112 3.7 18:54:31 10° NW 18:58:39 71° NE 19:02:13 14° ESE
Cosmos 2297 3.9 18:54:16 10° SSW 18:59:56 78° WNW 19:05:42 10° NNE
NOSS 2-2 (C) 3.6 18:59:45 10° SW 19:03:16 64° NW 19:07:04 10° NNE
STARLINK-1128 3.7 18:59:28 10° NW 19:03:37 78° NE 19:06:59 15° ESE
Cosmos 2082 Rocket 3.0 18:58:43 10° NW 19:04:12 49° WSW 19:09:38 10° S
Resurs 1-3 4.1 19:02:01 10° S 19:06:21 60° W 19:10:43 10° NNW
Milstar 3 Cent rocket 4.4 19:00:44 10° SSW 19:07:15 28° SSE 19:18:34 10° E
ATLAS 5 CENTAUR R/B 4.3 19:00:57 10° S 19:07:31 19° SE 19:10:46 10° E
Cosmos 2369 Rocket 2.7 19:03:06 10° S 19:08:18 39° ESE 19:13:31 10° NE
ATLAS 2AS CENTAUR R/B 3.6 19:01:34 10° S 19:08:32 36° ESE 19:15:37 10° NE
STARLINK-1113 3.6 19:04:28 10° NW 19:08:37 84° NE 19:11:48 17° SE
Aureole 2 3.9 19:07:55 10° NNW 19:10:54 88° SW 19:13:00 17° SSE
NOSS 3-2 (A) 4.4 19:04:43 10° NNW 19:12:12 60° NE 19:19:19 15° SE
STARLINK-60 3.6 19:09:31 10° WSW 19:12:38 56° NW 19:15:46 10° NE
deb Kosmos-1763 4.2 19:09:05 10° NNW 19:12:40 71° WSW 19:15:40 14° S
MetOp-B 4.2 19:07:58 13° SSE 19:12:47 65° ENE 19:18:06 10° N
STARLINK-1119 3.6 19:09:26 10° NW 19:13:35 89° SSW 19:16:34 18° SE
Cosmos 1674 Rocket 3.8 19:10:15 10° SSW 19:14:37 73° W 19:19:02 10° N
Meteor 1-15 Rocket 4.3 19:08:56 10° N 19:14:53 79° E 19:20:23 12° SSE
Cosmos 1378 Rocket 3.5 19:10:32 10° S 19:14:55 85° E 19:19:18 10° N
Cosmos 1242 Rocket 4.5 19:14:45 14° E 19:15:25 14° E 19:17:28 10° NE
Cosmos 1766 4.1 19:14:20 10° N 19:18:01 34° ENE 19:20:13 20° SE
STARLINK-1114 3.6 19:14:25 10° NW 19:18:35 81° SW 19:21:21 20° SE
Abrixas rocket 2.9 19:18:48 10° WNW 19:21:31 35° SW 19:22:49 23° SSE
Cosmos 292 Rocket 4.5 19:18:52 15° SSE 19:22:13 34° ESE 19:26:35 10° NE
ERS-1 Rocket 3.9 19:19:15 17° ESE 19:22:28 33° ENE 19:26:57 10° N
STARLINK-1130 (DARKSAT) 3.6 19:19:24 10° NW 19:23:32 74° SW 19:26:08 22° SE
SL-8 R/B 3.7 19:19:12 10° WNW 19:24:01 79° SSW 19:27:19 20° SE
USA 238 DEB 4.0 19:19:22 10° NNW 19:26:36 68° NE 19:32:17 18° SE
USA 238 4.0 19:19:28 10° NNW 19:26:42 68° NE 19:32:24 18° SE
STARLINK-1084 3.7 19:24:23 10° WNW 19:28:31 68° SW 19:30:55 24° SE
Cosmos 1092 Rocket 4.1 19:24:07 13° SSE 19:29:22 54° E 19:35:20 10° NNE
Meteor 1-23 Rocket 4.5 19:25:09 10° SSW 19:30:49 72° W 19:36:27 10° N
Lacrosse 5 4.2 19:30:01 10° W 19:32:38 14° WSW 19:35:16 10° SSW
STARLINK-1098 3.8 19:29:22 10° WNW 19:33:28 61° SW 19:35:41 25° SSE
Cosmos 1066 Rocket 4.4 19:29:06 10° SSW 19:34:26 68° W 19:39:47 10° N
Landsat 7 3.8 19:32:41 20° SSE 19:35:56 73° ENE 19:40:41 10° N
STARLINK-1123 3.9 19:34:22 10° WNW 19:38:25 55° SW 19:40:28 27° SSE
Cosmos 1975 Rocket 3.3 19:37:09 22° SSE 19:39:44 52° E 19:44:00 10° NNE
COSMOS 2455 3.7 19:38:18 21° SE 19:40:45 28° ESE 19:45:47 10° NE
STARLINK-1444 4.3 19:39:54 10° W 19:41:38 25° NNW 19:43:24 10° NNE
STARLINK-1452 4.3 19:40:04 10° W 19:41:46 25° NNW 19:43:28 10° NNE
STARLINK-1097 4.0 19:39:22 10° WNW 19:43:23 50° SW 19:45:15 28° SSE
STARLINK-1436 (VISORSAT) 4.4 19:41:43 10° W 19:43:24 24° NNW 19:45:07 10° NNE
STARLINK-1450 4.4 19:41:47 10° W 19:43:29 24° NNW 19:45:11 10° NNE
STARLINK-1392 4.4 19:41:52 10° W 19:43:34 24° NNW 19:45:16 10° NNE
STARLINK-1399 4.4 19:41:53 10° W 19:43:34 24° NNW 19:45:17 10° NNE
STARLINK-1398 4.4 19:41:53 10° W 19:43:34 24° NNW 19:45:17 10° NNE
STARLINK-1393 4.4 19:41:54 10° W 19:43:35 24° NNW 19:45:18 10° NNE
STARLINK-1395 4.4 19:41:54 10° W 19:43:35 24° NNW 19:45:18 10° NNE
STARLINK-1394 4.4 19:41:54 10° W 19:43:36 24° NNW 19:45:18 10° NNE
STARLINK-1415 4.4 19:41:54 10° W 19:43:36 24° NNW 19:45:18 10° NNE
STARLINK-1414 4.4 19:41:54 10° W 19:43:36 24° NNW 19:45:18 10° NNE
STARLINK-1396 4.4 19:41:55 10° W 19:43:37 24° NNW 19:45:19 10° NNE
STARLINK-1397 4.4 19:41:55 10° W 19:43:37 24° NNW 19:45:19 10° NNE
STARLINK-1416 4.4 19:41:55 10° W 19:43:37 24° NNW 19:45:19 10° NNE
STARLINK-1404 4.4 19:41:55 10° W 19:43:37 24° NNW 19:45:19 10° NNE
STARLINK-1401 4.4 19:41:56 10° W 19:43:37 24° NNW 19:45:19 10° NNE
STARLINK-1419 4.4 19:41:56 10° W 19:43:37 24° NNW 19:45:19 10° NNE
STARLINK-1408 4.4 19:41:56 10° W 19:43:38 24° NNW 19:45:20 10° NNE
STARLINK-1453 4.4 19:41:57 10° W 19:43:38 24° NNW 19:45:20 10° NNE
STARLINK-1417 4.4 19:41:57 10° W 19:43:38 24° NNW 19:45:21 10° NNE
STARLINK-1402 4.4 19:41:57 10° W 19:43:38 24° NNW 19:45:21 10° NNE
STARLINK-1437 4.4 19:41:57 10° W 19:43:38 24° NNW 19:45:21 10° NNE
STARLINK-1420 4.4 19:41:58 10° W 19:43:39 24° NNW 19:45:21 10° NNE
STARLINK-1413 4.4 19:41:58 10° W 19:43:40 24° NNW 19:45:22 10° NNE
STARLINK-1406 4.4 19:41:59 10° W 19:43:40 24° NNW 19:45:22 10° NNE
STARLINK-1458 4.4 19:41:59 10° W 19:43:40 24° NNW 19:45:22 10° NNE
STARLINK-1460 4.4 19:41:59 10° W 19:43:40 24° NNW 19:45:23 10° NNE
STARLINK-1422 4.4 19:41:59 10° W 19:43:41 24° NNW 19:45:23 10° NNE
STARLINK-1440 4.4 19:42:00 10° W 19:43:42 24° NNW 19:45:24 10° NNE
STARLINK-1445 4.4 19:42:00 10° W 19:43:42 24° NNW 19:45:24 10° NNE
STARLINK-1443 4.4 19:42:02 10° W 19:43:43 24° NNW 19:45:25 10° NNE
STARLINK-1446 4.4 19:42:02 10° W 19:43:43 24° NNW 19:45:26 10° NNE
STARLINK-1454 4.4 19:42:02 10° W 19:43:44 24° NNW 19:45:26 10° NNE
STARLINK-1457 4.4 19:42:03 10° W 19:43:44 24° NNW 19:45:26 10° NNE
STARLINK-1456 4.4 19:42:03 10° W 19:43:44 24° NNW 19:45:27 10° NNE
STARLINK-1451 4.4 19:42:03 10° W 19:43:45 24° NNW 19:45:27 10° NNE
STARLINK-1447 4.4 19:42:04 10° W 19:43:45 24° NNW 19:45:28 10° NNE
STARLINK-1455 4.4 19:42:04 10° W 19:43:46 24° NNW 19:45:28 10° NNE
STARLINK-1442 4.4 19:42:05 10° W 19:43:46 24° NNW 19:45:28 10° NNE
STARLINK-1449 4.4 19:42:05 10° W 19:43:46 24° NNW 19:45:28 10° NNE
STARLINK-1448 4.4 19:42:05 10° W 19:43:46 24° NNW 19:45:29 10° NNE
STARLINK-1441 4.4 19:42:05 10° W 19:43:47 24° NNW 19:45:29 10° NNE
STARLINK-1421 4.4 19:42:07 10° W 19:43:47 24° NNW 19:45:30 10° NNE
STARLINK-1410 4.4 19:42:07 10° W 19:43:48 24° NNW 19:45:30 10° NNE
STARLINK-1407 4.4 19:42:07 10° W 19:43:48 24° NNW 19:45:30 10° NNE
STARLINK-1400 4.4 19:42:07 10° W 19:43:48 24° NNW 19:45:31 10° NNE
STARLINK-1405 4.4 19:42:06 10° W 19:43:48 24° NNW 19:45:30 10° NNE
STARLINK-1423 4.4 19:42:07 10° W 19:43:48 24° NNW 19:45:30 10° NNE
STARLINK-1439 4.4 19:42:08 10° W 19:43:49 24° NNW 19:45:31 10° NNE
Cosmos 1900 4.5 19:38:47 10° NW 19:43:49 72° WSW 19:46:54 24° SSE
STARLINK-1409 4.4 19:42:09 10° W 19:43:50 24° NNW 19:45:32 10° NNE
STARLINK-1351 4.4 19:42:09 10° W 19:43:50 24° NNW 19:45:32 10° NNE
STARLINK-1434 4.4 19:42:09 10° W 19:43:50 23° NNW 19:45:33 10° NNE
STARLINK-1418 4.4 19:42:09 10° W 19:43:50 23° NNW 19:45:33 10° NNE
STARLINK-1370 4.4 19:42:09 10° W 19:43:51 23° NNW 19:45:33 10° NNE
STARLINK-1403 4.4 19:42:10 10° W 19:43:52 23° NNW 19:45:34 10° NNE
STARLINK-1433 4.4 19:42:11 10° W 19:43:52 23° NNW 19:45:34 10° NNE
STARLINK-1411 4.4 19:42:12 10° W 19:43:54 23° NNW 19:45:36 10° NNE
STARLINK-1438 4.4 19:42:13 10° W 19:43:54 23° NNW 19:45:36 10° NNE
STARLINK-1412 4.4 19:42:13 10° W 19:43:54 23° NNW 19:45:36 10° NNE
STARLINK-29 3.5 19:41:22 10° WSW 19:44:34 61° NW 19:47:46 10° NE
Cosmos 1378 3.6 19:44:38 13° SSW 19:47:52 60° W 19:51:33 10° N
STARLINK-1099 4.2 19:44:23 10° WNW 19:48:21 45° SW 19:50:02 29° S
Cosmos 1805 3.3 19:47:53 10° N 19:51:49 76° W 19:53:50 27° S
Meteor 1-22 Rocket 4.2 19:46:43 10° N 19:52:32 77° E 19:55:51 25° SSE
STARLINK-1104 4.3 19:49:25 10° WNW 19:53:19 41° SW 19:54:49 29° S
BREEZE-M DEB (TANK) 3.0 19:53:29 10° SW 19:56:18 75° SE 20:04:21 10° ENE
Cosmos 1470 3.9 19:53:23 10° NNE 19:56:45 28° ENE 19:57:29 26° E
STARLINK-1187 4.3 19:54:07 10° NW 19:57:05 33° NNE 19:58:23 23° ENE
STARLINK-1353 4.4 19:58:09 30° ESE 19:58:09 30° ESE 20:00:48 10° ENE
STARLINK-1144 4.5 19:54:26 10° WNW 19:58:15 37° SW 19:59:36 29° S
Spot 2 Rocket 3.9 19:54:46 19° S 19:58:16 59° W 20:03:16 10° NNW
STARLINK-1375 4.4 20:01:13 29° E 20:01:13 29° E 20:03:40 10° ENE
Cosmos 1726 4.4 20:00:40 10° NE 20:02:24 13° ENE 20:02:43 13° ENE
Meteor 2-13 Rocket 4.5 20:00:28 24° S 20:04:19 67° E 20:10:26 10° NNE
CENTAUR R/B 3.3 19:56:58 10° NNW 20:05:07 71° NE 20:10:46 25° SE
STARLINK-1350 4.0 20:06:02 38° ESE 20:06:02 38° ESE 20:09:08 10° ENE
Cosmos 1842 3.1 20:04:33 33° S 20:06:14 88° W 20:10:08 10° N
Cosmos 1733 3.2 20:03:04 10° N 20:06:53 76° W 20:08:10 39° S
Cosmos 2263 4.1 20:01:38 10° SSW 20:07:14 86° ESE 20:12:53 10° NNE
RESURS DK-1 4.5 20:09:15 14° E 20:09:15 14° E 20:10:26 10° ENE
Cosmos 2026 Rocket 4.0 20:04:14 21° S 20:08:39 81° E 20:15:03 10° N
STARLINK-1352 3.8 20:10:01 43° ESE 20:10:01 43° ESE 20:13:22 10° ENE
Cosmos 1455 Rocket 2.9 20:06:51 10° N 20:11:10 74° E 20:12:33 42° SSE
SPOT 5 3.0 20:09:28 32° SSE 20:12:01 83° ENE 20:17:24 10° NNW
ATLAS 3B R/B 3.6 20:05:52 10° NNW 20:12:11 39° NE 20:16:50 18° ESE
STARLINK-1368 3.6 20:14:01 49° ESE 20:14:01 49° ESE 20:17:35 10° ENE
Cosmos 1953 3.9 20:12:52 10° NNE 20:15:57 21° ENE 20:16:18 21° E
STARLINK-1369 3.5 20:18:01 54° SE 20:18:01 54° SE 20:21:49 10° ENE
CARTOSAT-1 3.6 20:17:24 38° S 20:18:58 74° WSW 20:23:18 10° NNW
Cosmos 1553 Rocket 4.2 20:14:16 10° N 20:20:24 56° ENE 20:22:57 34° SE
Cosmos 1943 Rocket 3.5 20:15:35 10° SW 20:20:44 38° WNW 20:25:58 10° N
Terra 1.8 20:19:29 41° SSE 20:21:07 73° ENE 20:25:52 10° N
Cosmos 1271 Rocket 2.7 20:21:11 56° SE 20:21:46 66° E 20:25:41 10° NNE
STARLINK-1372 3.4 20:22:02 59° SSE 20:22:09 60° SE 20:26:04 10° ENE
SL-4 R/B 3.8 20:18:28 10° W 20:22:56 39° NNW 20:27:29 10° NE
SPOT 1/Viking Rocket 4.2 20:21:05 24° SSW 20:23:56 48° W 20:28:55 10° NNW
NOSS 3-2 (C) 4.1 20:16:59 10° NW 20:24:43 84° WSW 20:29:21 31° SSE
STARLINK-1378 3.3 20:25:15 63° SE 20:25:15 63° SE 20:29:06 10° ENE
Cosmos 1174 3.3 20:26:49 69° ENE 20:26:49 69° ENE 20:30:07 10° NNE
Cosmos 1833 4.2 20:21:32 10° NNW 20:27:11 70° ENE 20:29:18 39° SE
STARLINK-1379 3.3 20:28:43 68° SE 20:28:43 68° SE 20:32:33 10° ENE
Resurs 01 Rocket 4.3 20:27:02 10° WSW 20:28:43 12° W 20:30:26 10° WNW
NOSS 3-4 (A) 3.4 20:25:15 10° SW 20:31:10 79° NW 20:37:26 10° NNE
NOSS 3-4 (C) 3.4 20:25:21 10° SW 20:31:15 80° NW 20:37:33 10° NNE
ATLAS CENTAUR R/B 1.6 20:28:18 16° SW 20:31:49 71° NW 20:35:59 10° NNE
STARLINK-1329 3.3 20:31:46 71° SSE 20:31:55 72° SE 20:35:48 10° NE
SeaSat 1 4.1 20:28:39 10° ENE 20:31:18 19° E 20:31:18 19° E
FALCON 9 DEB 4.3 20:29:09 10° WSW 20:32:26 44° NNW 20:35:45 10° NE
Cosmos 1707 2.7 20:33:08 63° ESE 20:33:19 64° E 20:37:10 10° NNE
Cosmos 1758 3.3 20:30:08 10° N 20:34:13 71° E 20:34:43 62° SE
Cosmos 1486 Rocket 4.2 20:29:45 10° NNW 20:34:59 64° WSW 20:36:51 39° S
SL-27 R/B 3.7 20:32:55 10° NW 20:36:06 32° WSW 20:36:32 30° WSW
Cosmos 1354 Rocket 4.1 20:30:58 10° NNW 20:36:15 65° ENE 20:37:51 43° SE
STARLINK-1362 3.3 20:36:30 64° SSW 20:37:02 80° SE 20:40:58 10° NE
STARLINK-1235 3.1 20:34:13 10° NW 20:37:20 74° NNW 20:37:20 74° NNW
Cosmos 1536 Rocket 3.4 20:39:07 60° SE 20:39:40 67° E 20:44:01 10° NNE
Meteor 1-21 4.5 20:36:43 24° SSW 20:40:05 66° WNW 20:45:40 10° N
COSMOS 2487 3.3 20:37:13 10° N 20:40:16 38° ENE 20:40:16 38° ENE
Cosmos 2266 Rocket 4.4 20:39:32 37° SE 20:41:08 45° E 20:46:50 10° NNE
STARLINK-1373 3.3 20:40:38 58° SW 20:41:21 87° SE 20:45:17 10° NE
Cosmos 1656 Rocket 3.8 20:37:43 18° SSW 20:41:58 71° WNW 20:47:32 10° NNE
Cosmos 1655 Rocket 4.0 20:40:25 39° SSE 20:42:41 65° E 20:48:54 10° NNE
Cosmos 1992 Rocket 4.2 20:41:03 24° SW 20:44:12 67° WNW 20:49:24 10° NNE
STARLINK-1390 3.3 20:43:55 65° SW 20:44:27 89° NW 20:48:20 10° NE
EO 1 Del DPAF 4.4 20:42:14 10° NNE 20:44:51 30° ENE 20:44:51 30° ENE
Cosmos 1544 Rocket 3.8 20:44:13 10° NNW 20:48:31 59° W 20:49:24 48° SW
STARLINK-1365 3.5 20:47:48 36° WSW 20:49:18 80° NW 20:53:17 10° NE
Cosmos 2084 3.4 20:49:43 64° ESE 20:49:43 64° ESE 20:54:06 10° NE
Cosmos 1242 Rocket 4.1 20:48:44 26° WSW 20:49:58 32° WNW 20:53:20 10° N
Cosmos 2369 Rocket 3.9 20:47:23 10° WSW 20:52:23 31° WNW 20:57:23 10° N
ATLAS 3B CENTAUR R/B 3.9 20:47:55 10° WSW 20:58:59 30° SSW 21:00:02 29° SSW
ATLAS 2AS CENTAUR R/B 3.6 20:51:26 10° SW 20:59:16 59° NW 21:07:07 10° NNE
Cosmos 2292 Rocket 4.2 21:00:47 32° NE 21:00:47 32° NE 21:02:42 10° NNE
ERS-1 Rocket 4.4 20:59:15 22° SW 21:01:14 29° W 21:05:36 10° NW
Spot 4 4.3 21:03:16 44° E 21:04:01 48° ENE 21:08:40 10° N
STARLINK-1338 3.8 21:03:39 40° W 21:04:44 60° NW 21:08:30 10° NE
BREEZE-M R/B 4.2 20:54:55 10° SW 21:06:31 71° SSE 21:11:39 10° ENE
STARLINK-1218 4.5 21:03:38 10° NW 21:07:38 45° NNE 21:08:27 39° ENE
BREEZE-M DEB (TANK) 3.6 21:00:44 10° WNW 21:08:45 45° SW 21:09:24 42° SSW
Meteor 2-5 Rocket 4.4 21:09:22 35° ESE 21:09:52 36° E 21:14:58 10° NNE
STARLINK-1254 4.3 21:08:34 10° NW 21:12:36 48° NNE 21:13:13 44° ENE
CZ-4C R/B 4.1 21:14:27 14° E 21:14:27 14° E 21:15:55 10° ENE
STARLINK-1371 4.2 21:12:08 27° W 21:13:56 51° NNW 21:17:44 10° NE
Cosmos 1867 3.8 21:08:53 10° NW 21:14:13 54° WSW 21:15:01 50° SSW
Cosmos 1606 Rocket 4.3 21:10:28 10° N 21:14:30 39° ENE 21:14:30 39° ENE
Cosmos 1908 4.2 21:11:34 10° N 21:14:38 37° NE 21:14:38 37° NE
ALOS 2 3.8 21:16:21 30° ENE 21:16:40 30° ENE 21:20:29 10° N
STARLINK-1231 4.1 21:13:31 10° NW 21:17:35 52° NNE 21:17:58 50° NE
STARLINK-1341 4.3 21:16:01 24° W 21:17:59 48° NNW 21:21:44 10° NE
Cosmos 1025 Rocket 4.2 21:17:47 32° WSW 21:18:48 36° WNW 21:22:49 10° N
In-Cosmos 22 4.0 21:17:57 56° SSW 21:19:04 80° W 21:24:23 10° N
Exosat Rocket 4.2 21:10:58 10° NNW 21:19:37 90° NE 21:21:37 49° SSE
STARLINK-1374 4.5 21:19:51 23° W 21:21:55 45° NNW 21:25:39 10° NE
STARLINK-1232 4.0 21:18:31 10° NW 21:22:37 57° NNE 21:22:48 56° NE
COSMOS 2455 3.7 21:21:21 14° SW 21:26:24 48° NW 21:32:13 10° NNE
STARLINK-1208 3.9 21:23:27 10° NW 21:27:32 61° NNE 21:27:32 61° NNE
Meteor 2-19 Rocket 4.5 21:26:09 46° SSW 21:28:04 74° W 21:34:12 10° N
STARLINK-1271 3.9 21:28:27 10° NW 21:32:21 65° NNE 21:32:21 65° NNE
ATLAS CENTAUR R/B 4.2 21:34:18 10° NNE 21:34:55 10° NE 21:35:36 10° NE
Cosmos 1777 Rocket 3.9 21:30:31 10° NNW 21:35:47 79° ENE 21:36:21 69° SE
Cosmos 1674 3.3 21:36:36 55° N 21:36:36 55° N 21:39:40 10° N
STARLINK-1154 3.9 21:33:24 10° NW 21:37:07 65° NNW 21:37:07 65° NNW
Cosmos 1726 3.3 21:34:17 10° NNW 21:37:13 37° WNW 21:37:13 37° WNW
Cosmos 1340 Rocket 3.7 21:34:38 10° NNW 21:38:13 43° W 21:38:13 43° W
Timation 2 Rocket 3.9 21:32:43 10° NNW 21:38:59 77° ENE 21:40:21 55° SE
Thor Agena Rocket 3.9 21:34:18 10° N 21:39:29 59° WNW 21:40:50 44° WSW
Cosmos 921 Rocket 3.4 21:41:18 56° NE 21:41:18 56° NE 21:44:57 10° NNE
BREEZE-M DEB (TANK) 3.4 21:33:05 10° WNW 21:41:50 67° SW 21:41:50 67° SW
Cosmos 2228 3.1 21:37:44 10° N 21:41:35 69° NNE 21:41:35 69° NNE
STARLINK-1197 4.0 21:38:22 10° NW 21:41:53 62° NNW 21:41:53 62° NNW
Cosmos 220 Rocket 4.4 21:43:25 58° ENE 21:43:25 58° ENE 21:47:13 10° NNE
RESURS DK-1 3.3 21:45:05 40° WNW 21:45:30 42° WNW 21:49:28 10° NNE
STARLINK-1198 4.1 21:43:22 10° NW 21:46:41 56° NW 21:46:41 56° NW
Okean 1-7 Rocket 4.0 21:48:31 53° ENE 21:48:31 53° ENE 21:52:30 10° NNE
Lacrosse 4 Rocket 4.0 21:46:17 10° NNE 21:48:40 14° NE 21:50:42 11° ENE
Cosmos 1809 Rocket 4.4 21:49:43 60° SSE 21:50:50 77° E 21:57:03 10° N
Cosmos 1953 4.0 21:49:00 10° NNW 21:51:59 25° W 21:51:59 25° W
STARLINK-1199 4.3 21:48:19 10° NW 21:51:27 50° NW 21:51:27 50° NW
Meteor 1-24 Rocket 3.6 21:54:35 65° ESE 21:54:56 67° E 22:00:24 10° NNE
CENTAUR R/B 4.2 21:48:27 10° NW 21:55:31 31° WSW 21:57:55 27° SW
Nadezhda 2 Rocket 4.3 21:55:31 62° SSE 21:56:35 81° E 22:02:45 10° N
Cosmos 1892 Rocket 3.7 21:57:14 71° NNE 21:57:14 71° NNE 22:01:09 10° N
Cosmos 2315 Rocket 4.0 21:51:14 10° NNW 21:57:24 71° W 21:58:39 56° SSW
STARLINK-1210 4.5 21:53:18 10° NW 21:56:14 45° WNW 21:56:14 45° WNW
Cosmos 1726 Rocket 3.7 21:53:56 10° N 21:57:49 71° NNW 21:57:49 71° NNW
Terra 4.2 21:58:22 11° WSW 21:59:21 12° W 22:01:00 10° WNW
Helios 1A 3.7 22:01:44 45° ENE 22:01:44 45° ENE 22:05:27 10° N
ATLAS 3B R/B 3.0 21:56:28 10° NW 22:03:00 48° WSW 22:04:05 45° SW
Cosmos 2297 Rocket 2.8 21:59:22 10° NNW 22:04:52 49° ENE 22:06:16 40° ESE
BREEZE-M DEB (TANK) 2.9 22:00:42 10° WSW 22:06:33 49° NNW 22:09:11 10° NE
Cosmos 1656 3.8 22:06:52 57° ESE 22:06:58 57° ESE 22:12:28 10° NNE
Cosmos 2219 3.4 22:01:29 10° NNW 22:07:06 63° ENE 22:08:06 53° ESE
Cosmos 1626 3.2 22:08:16 43° N 22:08:16 43° N 22:10:53 10° N
SJ 16-02 2.7 22:03:42 10° N 22:07:39 31° ENE 22:08:01 30° ENE
EO 1 Delta rocket 4.2 22:02:44 10° NNE 22:07:39 55° E 22:07:39 55° E
SeaSat 1 3.0 22:05:12 10° NNE 22:10:01 54° WNW 22:11:04 45° W
Meteor 2-16 Rocket 4.3 22:25:55 65° S 22:26:53 83° E 22:33:01 10° N
Cosmos 1697 Rocket 3.1 22:28:57 47° ESE 22:29:02 47° ESE 22:34:27 10° NE
STARLINK-1239 4.4 22:25:34 10° NW 22:29:35 47° NNE 22:29:47 47° NE
YAOGAN 11 4.3 22:30:25 68° NNE 22:30:25 68° NNE 22:34:19 10° N
Cosmos 1898 Rocket 4.2 22:25:15 10° N 22:30:24 47° ENE 22:31:27 41° E
STARLINK-1240 4.3 22:30:30 10° NW 22:34:32 51° NNE 22:34:32 51° NNE
ERBS 4.4 22:33:17 10° NNW 22:35:59 25° NNE 22:35:59 25° NNE
Cosmos 1356 Rocket 3.8 22:32:01 10° N 22:35:40 64° N 22:35:40 64° N
STARLINK-1216 4.2 22:35:29 10° NW 22:39:20 54° NNE 22:39:20 54° NNE
Cosmos 1626 Rocket 3.7 22:41:01 68° NNE 22:41:01 68° NNE 22:44:52 10° N
Cosmos 2227 Rocket 2.1 22:36:49 10° NNW 22:42:32 84° ENE 22:43:18 68° SE
Cosmos 990 Rocket 4.1 22:38:19 10° NNW 22:43:33 64° ENE 22:44:13 58° ESE
STARLINK-1237 4.2 22:40:26 10° NW 22:44:06 55° N 22:44:06 55° N
Resurs 1-4 Rocket 4.3 22:43:51 10° ENE 22:46:24 13° E 22:47:38 13° ESE
STARLINK-1202 4.2 22:45:24 10° NW 22:48:53 55° NNW 22:48:53 55° NNW
SL-08 ROCKET BODY 4.2 22:49:43 68° S 22:50:33 88° W 22:56:26 10° N
Cosmos 2058 Rocket 4.2 22:47:19 10° NNW 22:50:50 33° WNW 22:50:50 33° WNW
STARLINK-1203 4.2 22:48:29 10° NW 22:52:01 57° NNW 22:52:01 57° NNW
Cosmos 1745 Rocket 3.8 22:51:38 63° SSW 22:52:42 83° W 22:58:52 10° N
ALOS 2 4.3 22:53:44 23° WNW 22:53:44 23° WNW 22:56:35 10° NW
SL-16 R/B 4.5 22:54:48 10° ESE 22:56:01 11° E 22:57:21 10° E
Cosmos 841 Rocket 3.9 22:57:40 49° ESE 22:57:49 49° ESE 23:02:51 10° NNE
FALCON 9 R/B 3.3 22:58:57 43° SSE 22:58:57 43° SSE 23:10:04 10° ESE
Meteor 1-21 Rocket 4.2 22:58:08 63° SE 22:58:53 72° E 23:04:38 10° NNE
Cosmos 1570 Rocket 4.2 22:58:45 58° ESE 22:58:59 58° ESE 23:04:11 10° NNE
STARLINK-1246 4.4 22:55:21 10° NW 22:58:27 48° NW 22:58:27 48° NW
CZ-4C R/B 2.1 22:59:36 57° W 23:00:24 66° NW 23:06:13 10° NNE
STARLINK-1224 4.5 23:00:20 10° NW 23:03:14 44° NW 23:03:14 44° NW
Cosmos 1763 Rocket 3.4 23:05:56 70° WSW 23:06:16 73° WNW 23:11:21 10° NNE
Helios 1B rocket 2.7 23:05:37 10° N 23:09:18 65° NNW 23:09:18 65° NNW
Cosmos 1812 Rocket 3.6 23:05:54 10° N 23:09:59 72° NW 23:09:59 72° NW
CZ-2D R/B 3.6 23:09:54 10° NE 23:14:00 23° E 23:15:12 21° ESE
Cosmos 1825 Rocket 3.9 23:14:48 57° E 23:14:48 57° E 23:18:53 10° NNE
Cosmos 2208 Rocket 4.0 23:16:05 65° SE 23:16:33 70° ESE 23:21:52 10° NNE
PSLV R/B 3.8 23:12:54 10° N 23:17:07 60° WNW 23:17:07 60° WNW
Meteor 2-10 Rocket 3.2 23:12:52 10° N 23:18:01 89° E 23:18:26 76° SSE
Cosmos 1602 Rocket 4.2 23:18:22 45° WNW 23:18:22 45° WNW 23:22:15 10° N
USA 81 3.9 23:20:20 71° S 23:20:57 88° E 23:26:16 10° N
Cosmos 1980 Rocket 2.1 23:25:34 62° S 23:26:25 75° ESE 23:32:05 10° NNE
Lacrosse 4 Rocket 1.9 23:23:36 10° NNW 23:26:59 51° WNW 23:26:59 51° WNW
Cosmos 2181 Rocket 4.2 23:21:46 10° N 23:28:12 67° E 23:30:38 39° SSE
USA 215 3.1 23:26:26 28° SE 23:30:10 80° SW 23:36:46 10° NW
Cosmos 1328 4.0 23:30:46 69° NE 23:30:46 69° NE 23:34:21 10° N
Cosmos 2369 4.1 23:33:19 44° WSW 23:34:41 55° WNW 23:40:15 10° NNE
STARLINK-1317 3.8 23:38:54 59° N 23:38:54 59° N 23:42:16 10° NE
STARLINK-1307 4.0 23:39:56 52° NNE 23:39:56 52° NNE 23:42:51 10° NE
Cosmos 1703 3.5 23:40:18 63° NW 23:40:18 63° NW 23:43:49 10° N
Cosmos 1709 Rocket 4.1 23:40:00 48° SW 23:41:30 63° W 23:47:37 10° N
STARLINK-1290 4.0 23:42:29 52° NNE 23:42:29 52° NNE 23:45:24 10° NE
Cosmos 1455 3.1 23:38:58 10° NNW 23:41:40 39° NW 23:41:40 39° NW
SL-16 R/B 3.1 23:39:08 22° SE 23:42:58 52° ENE 23:48:56 10° N
SL-4 R/B 4.1 23:40:05 10° NW 23:44:29 33° NNE 23:48:45 10° E
Cosmos 540 Rocket 3.5 23:44:01 57° WSW 23:44:49 67° WNW 23:49:56 10° NNE
STARLINK-1309 4.5 23:45:57 35° NNE 23:45:57 35° NNE 23:48:06 10° NE
STARLINK-1282 4.5 23:46:49 35° NNE 23:46:49 35° NNE 23:49:00 10° NE
STARLINK-1272 3.9 23:46:28 51° N 23:46:28 51° N 23:49:31 10° NE
SJ 16-02 3.0 23:42:31 10° NW 23:44:59 22° WNW 23:44:59 22° WNW
Cosmos 2263 Rocket 3.4 23:41:15 10° N 23:46:29 39° ENE 23:51:39 10° SE
STARLINK-1313 4.5 23:47:46 34° N 23:47:46 34° N 23:50:05 10° NE
STARLINK-22 4.3 23:48:00 38° N 23:48:00 38° N 23:50:31 10° NE
STARLINK-1279 4.5 23:48:40 34° N 23:48:40 34° N 23:51:00 10° NE
Cosmos 2297 Rocket 3.6 23:44:09 10° NW 23:48:02 23° W 23:48:02 23° W
STARLINK-1298 4.4 23:49:23 36° N 23:49:23 36° N 23:51:40 10° NE
STARLINK-1293 4.4 23:50:15 36° N 23:50:15 36° N 23:52:34 10° NE
MOZ.5/SAFIR/RUBIN 5/SL-8 4.0 23:49:23 47° SE 23:50:33 66° ENE 23:55:10 10° N
STARLINK-1255 4.4 23:52:01 36° N 23:52:01 36° N 23:54:23 10° NE
SL-19 R/B 4.4 23:47:52 10° N 23:53:30 69° WNW 23:55:13 46° SW
STARLINK-1291 4.0 23:56:22 47° NW 23:56:25 47° NNW 23:59:55 10° NE
